Time,TemperatureF,DewpointF,PressureIn,WindDirection,WindDirectionDegrees,WindSpeedMPH,WindSpeedGustMPH,Humidity,HourlyPrecipIn,Conditions,Clouds,dailyrainin,SolarRadiationWatts/m^2,SoftwareType,DateUTC
2013-01-06 14:12:00,35.0,19.0,-100.00,SW,225,12.0,18.0,52,0.00,,,0.00,150.000000,,2013-01-06 21:12:00,
2013-01-06 14:43:00,35.0,23.0,-100.00,SW,215,8.0,14.0,60,0.00,,,0.00,159.000000,,2013-01-06 21:43:00,
2013-01-06 14:53:00,35.0,23.0,-100.00,SW,215,8.0,14.0,60,0.00,,,0.00,159.000000,,2013-01-06 21:53:00,
2013-01-06 15:02:00,35.0,23.0,-100.00,SW,215,8.0,14.0,60,0.00,,,0.00,159.000000,,2013-01-06 22:02:00,
2013-01-06 15:12:00,35.0,23.0,-100.00,SW,215,8.0,14.0,60,0.00,,,0.00,159.000000,,2013-01-06 22:12:00,
2013-01-06 15:33:00,34.0,22.0,-100.00,SW,230,6.0,13.0,61,0.00,,,0.00,98.000000,,2013-01-06 22:33:00,
2013-01-06 15:43:00,34.0,22.0,-100.00,SW,230,6.0,13.0,61,0.00,,,0.00,98.000000,,2013-01-06 22:43:00,
2013-01-06 15:52:00,34.0,22.0,-100.00,SW,230,6.0,13.0,61,0.00,,,0.00,98.000000,,2013-01-06 22:52:00,
2013-01-06 16:02:00,34.0,22.0,-100.00,SW,230,6.0,13.0,61,0.00,,,0.00,98.000000,,2013-01-06 23:02:00,
2013-01-06 16:12:00,34.0,22.0,-100.00,SW,230,6.0,13.0,61,0.00,,,0.00,98.000000,,2013-01-06 23:12:00,
2013-01-06 16:33:00,32.0,21.0,-100.00,South,187,8.0,14.0,63,0.00,,,0.00,94.000000,,2013-01-06 23:33:00,
2013-01-06 16:43:00,32.0,21.0,-100.00,South,187,8.0,14.0,63,0.00,,,0.00,94.000000,,2013-01-06 23:43:00,
2013-01-06 16:53:00,32.0,21.0,-100.00,South,187,8.0,14.0,63,0.00,,,0.00,94.000000,,2013-01-06 23:53:00,
2013-01-06 17:02:00,32.0,21.0,-100.00,South,187,8.0,14.0,63,0.00,,,0.00,94.000000,,2013-01-07 00:02:00,
2013-01-06 17:12:00,32.0,21.0,-100.00,South,187,8.0,14.0,63,0.00,,,0.00,94.000000,,2013-01-07 00:12:00,
2013-01-06 17:33:00,31.0,21.0,-100.00,South,186,5.0,12.0,66,0.00,,,0.00,31.000000,,2013-01-07 00:33:00,
2013-01-06 17:43:00,31.0,21.0,-100.00,South,186,5.0,12.0,66,0.00,,,0.00,31.000000,,2013-01-07 00:43:00,
2013-01-06 17:53:00,31.0,21.0,-100.00,South,186,5.0,12.0,66,0.00,,,0.00,31.000000,,2013-01-07 00:53:00,
2013-01-06 18:02:00,31.0,21.0,-100.00,South,186,5.0,12.0,66,0.00,,,0.00,31.000000,,2013-01-07 01:02:00,
2013-01-06 18:12:00,31.0,21.0,-100.00,South,186,5.0,12.0,66,0.00,,,0.00,31.000000,,2013-01-07 01:12:00,
2013-01-06 18:43:00,30.0,20.0,-100.00,South,189,8.0,12.0,65,0.00,,,0.00,0.000000,,2013-01-07 01:43:00,
2013-01-06 18:53:00,30.0,20.0,-100.00,South,189,8.0,12.0,65,0.00,,,0.00,0.000000,,2013-01-07 01:53:00,
2013-01-06 19:02:00,30.0,20.0,-100.00,South,189,8.0,12.0,65,0.00,,,0.00,0.000000,,2013-01-07 02:02:00,
2013-01-06 19:12:00,30.0,20.0,-100.00,South,189,8.0,12.0,65,0.00,,,0.00,0.000000,,2013-01-07 02:12:00,
2013-01-06 19:43:00,29.0,18.0,-100.00,SSE,157,3.0,13.0,62,0.00,,,0.00,0.000000,,2013-01-07 02:43:00,
2013-01-06 19:53:00,29.0,18.0,-100.00,SSE,157,3.0,13.0,62,0.00,,,0.00,0.000000,,2013-01-07 02:53:00,
2013-01-06 20:02:00,29.0,18.0,-100.00,SSE,157,3.0,13.0,62,0.00,,,0.00,0.000000,,2013-01-07 03:02:00,
2013-01-06 20:12:00,29.0,18.0,-100.00,SSE,157,3.0,13.0,62,0.00,,,0.00,0.000000,,2013-01-07 03:12:00,
2013-01-06 20:33:00,30.0,18.0,-100.00,South,187,8.0,14.0,61,0.00,,,0.00,0.000000,,2013-01-07 03:33:00,
2013-01-06 20:43:00,30.0,18.0,-100.00,South,187,8.0,14.0,61,0.00,,,0.00,0.000000,,2013-01-07 03:43:00,
2013-01-06 20:53:00,30.0,18.0,-100.00,South,187,8.0,14.0,61,0.00,,,0.00,0.000000,,2013-01-07 03:53:00,
2013-01-06 21:02:00,30.0,18.0,-100.00,South,187,8.0,14.0,61,0.00,,,0.00,0.000000,,2013-01-07 04:02:00,
2013-01-06 21:12:00,30.0,18.0,-100.00,South,187,8.0,14.0,61,0.00,,,0.00,0.000000,,2013-01-07 04:12:00,
2013-01-06 21:42:00,29.0,19.0,-100.00,SSE,168,5.0,12.0,65,0.00,,,0.00,0.000000,,2013-01-07 04:42:00,
2013-01-06 21:52:00,29.0,19.0,-100.00,SSE,168,5.0,12.0,65,0.00,,,0.00,0.000000,,2013-01-07 04:52:00,
2013-01-06 22:02:00,29.0,19.0,-100.00,SSE,168,5.0,12.0,65,0.00,,,0.00,0.000000,,2013-01-07 05:02:00,
2013-01-06 22:12:00,29.0,19.0,-100.00,SSE,168,5.0,12.0,65,0.00,,,0.00,0.000000,,2013-01-07 05:12:00,
2013-01-06 22:43:00,30.0,17.0,-100.00,SSE,148,9.0,13.0,59,0.00,,,0.00,0.000000,,2013-01-07 05:43:00,
2013-01-06 22:53:00,30.0,17.0,-100.00,SSE,148,9.0,13.0,59,0.00,,,0.00,0.000000,,2013-01-07 05:53:00,
2013-01-06 23:02:00,30.0,17.0,-100.00,SSE,148,9.0,13.0,59,0.00,,,0.00,0.000000,,2013-01-07 06:02:00,
2013-01-06 23:12:00,30.0,17.0,-100.00,SSE,148,9.0,13.0,59,0.00,,,0.00,0.000000,,2013-01-07 06:12:00,
2013-01-06 23:42:00,28.0,16.0,-100.00,SE,133,6.0,12.0,61,0.00,,,0.00,0.000000,,2013-01-07 06:42:00,
2013-01-06 23:52:00,28.0,16.0,-100.00,SE,133,6.0,12.0,61,0.00,,,0.00,0.000000,,2013-01-07 06:52:00,